Flag for Poland Weather past 2 weeks in Lidzbark Warmiński, Poland

Now
50 °F

Clear.


Feels Like: 50 °F
Forecast: 48 / 65 °F
Wind: 2 mph from Southwest

Location: Ketrzyn

Current Time: Aug 21, 2014 at 1:10:41 AM

Latest Report: Aug 21, 2014 at 12:00 AM


Visibility: 31 mi

Pressure: 29.96 "Hg

Humidity: 76%

Dew point: 43 °F

Location of Lidzbark WarmińskiLocation

Historic Weather in Lidzbark Warmiński — Graph

°F

Lidzbark Warmiński temperature yesterday

Maximum temperature yesterday: 67 °F (at 2:00 PM)
Minimum temperature yesterday: 51 °F (at 11:00 PM)
Average temperature yesterday: 59 °F

Past Weeks' High & Low Weather Summary

 TemperatureHumidityPressure
High85 °F (Aug 11, 1:00 PM)97% (Aug 6, 5:00 AM)30.00 "Hg (Aug 6, 5:00 AM)
Low51 °F (Aug 20, 11:00 PM)36% (Aug 12, 3:00 PM)29.50 "Hg (Aug 14, 8:00 AM)
Average65 °F76%29.85 "Hg
* Reported Aug 5 11:00 PM — Aug 20 11:00 PM, Lidzbark Warmiński, Weather by CustomWeather, © 2014

Note: Actual official high and low records may vary slightly from our data, if they occured in-between our weather recording intervals... More about our weather records

Advertising

Lidzbark Warmiński weather history for previous 24 hours

 ConditionsComfort  
Time TempWeatherWind HumidityBarometerVisibility
11:00 PM
Aug 20
51 °FPassing clouds.1 mph74%29.95 "Hg31 mi
10:00 PM52 °FPassing clouds.1 mph71%29.95 "Hg19 mi
9:00 PM54 °FPassing clouds.2 mph67%29.95 "Hg28 mi
8:00 PM57 °FPassing clouds.2 mph61%29.93 "Hg31 mi
7:00 PM61 °FPassing clouds.6 mph53%29.92 "Hg28 mi
6:00 PM63 °FScattered clouds.7 mph50%29.91 "Hg25 mi
5:00 PM66 °FPartly sunny.7 mph46%29.90 "Hg25 mi
4:00 PM65 °FPartly sunny.8 mph45%29.89 "Hg31 mi
3:00 PM66 °FScattered clouds.8 mph44%29.88 "Hg22 mi
2:00 PM67 °FScattered clouds.8 mph44%29.87 "Hg18 mi
1:00 PM65 °FScattered clouds.8 mph44%29.87 "Hg19 mi
12:00 PM62 °FScattered clouds.8 mph49%29.87 "Hg19 mi
11:00 AM63 °FScattered clouds.8 mph55%29.85 "Hg19 mi
10:00 AM62 °FScattered clouds.7 mph57%29.84 "Hg18 mi
9:00 AM60 °FPartly sunny.6 mph74%29.82 "Hg17 mi
8:00 AM58 °FPartly sunny.7 mph82%29.82 "Hg13 mi
7:00 AM56 °FSprinkles. Overcast.7 mph84%29.80 "Hg14 mi
6:00 AM56 °FPartly sunny.7 mph83%29.80 "Hg17 mi
5:00 AM54 °FPassing clouds.6 mph89%29.80 "Hg12 mi
4:00 AM53 °FClear.3 mph88%29.81 "Hg13 mi
3:00 AM54 °FClear.5 mph85%29.82 "Hg17 mi
2:00 AM54 °FClear.5 mph79%29.84 "Hg25 mi
1:00 AM54 °FClear.3 mph79%29.85 "Hg25 mi
Weather by CustomWeather, © 2014

See weather overviewHow to use our weather pages